• In Germany
  • List of Countries
  • For 7 days
  • Water Temperature
  • Satellite Maps
  • Weather Map
  • Weather Widgets
  • user-avatar
    Login

    Hourly Weather Nizhniy Mangirtuy

    Today, 23 April, Monday

    Time Temperature Precipitation Wind Pressure Humidity
    00:00 +8°C° 0 mm 3 mps 708 mmHg 37%
    01:00 +7°C° 0 mm 3 mps 708 mmHg 38%
    02:00 +7°C° 0 mm 3 mps 708 mmHg 39%
    03:00 +7°C° 0 mm 3 mps 708 mmHg 40%
    04:00 +5°C° 0 mm 4 mps 708 mmHg 41%
    05:00 +7°C° 0 mm 4 mps 708 mmHg 39%
    06:00 +8°C° 0 mm 5 mps 708 mmHg 36%
    07:00 +10°C° 0 mm 5 mps 708 mmHg 35%
    08:00 +13°C° 0 mm 5 mps 708 mmHg 32%
    09:00 +15°C° 0 mm 6 mps 708 mmHg 29%
    10:00 +17°C° 0 mm 6 mps 707 mmHg 26%
    11:00 +19°C° 0 mm 6 mps 707 mmHg 24%
    12:00 +20°C° 0 mm 6 mps 707 mmHg 22%
    13:00 +21°C° 0 mm 5 mps 707 mmHg 20%
    14:00 +21°C° 0 mm 5 mps 707 mmHg 19%
    15:00 +21°C° 0 mm 4 mps 706 mmHg 19%
    16:00 +21°C° 0 mm 4 mps 706 mmHg 18%
    17:00 +19°C° 0 mm 3 mps 706 mmHg 22%
    18:00 +17°C° 0 mm 2 mps 706 mmHg 26%
    19:00 +15°C° 0 mm 2 mps 705 mmHg 28%
    20:00 +14°C° 0 mm 2 mps 705 mmHg 30%
    21:00 +13°C° 0 mm 2 mps 705 mmHg 32%
    22:00 +12°C° 0 mm 2 mps 705 mmHg 34%
    23:00 +12°C° 0 mm 2 mps 705 mmHg 35%

    Tomorrow, 24 April, Tuesday

    Time Temperature Precipitation Wind Pressure Humidity
    00:00 +10°C° 0 mm 2 mps 705 mmHg 37%
    01:00 +9°C° 0 mm 2 mps 705 mmHg 39%
    02:00 +9°C° 0 mm 2 mps 704 mmHg 40%
    03:00 +8°C° 0 mm 2 mps 704 mmHg 42%
    04:00 +8°C° 0 mm 2 mps 704 mmHg 43%
    05:00 +9°C° 0 mm 2 mps 704 mmHg 40%
    06:00 +11°C° 0 mm 3 mps 704 mmHg 38%
    07:00 +13°C° 0 mm 3 mps 703 mmHg 35%
    08:00 +15°C° 0 mm 4 mps 703 mmHg 31%
    09:00 +18°C° 0 mm 4 mps 703 mmHg 26%
    10:00 +21°C° 0 mm 5 mps 702 mmHg 22%
    11:00 +22°C° 0 mm 5 mps 702 mmHg 19%
    12:00 +24°C° 0 mm 6 mps 701 mmHg 16%
    13:00 +26°C° 0 mm 6 mps 701 mmHg 14%
    14:00 +26°C° 0 mm 6 mps 700 mmHg 14%
    15:00 +27°C° 0 mm 6 mps 700 mmHg 14%
    16:00 +27°C° 0 mm 6 mps 699 mmHg 14%
    17:00 +25°C° 0 mm 5 mps 699 mmHg 17%
    18:00 +21°C° 0 mm 4 mps 698 mmHg 21%
    19:00 +19°C° 0 mm 3 mps 698 mmHg 24%
    20:00 +18°C° 0 mm 3 mps 698 mmHg 26%
    21:00 +16°C° 0 mm 2 mps 698 mmHg 28%
    22:00 +15°C° 0 mm 2 mps 698 mmHg 30%
    23:00 +14°C° 0 mm 2 mps 698 mmHg 32%

    Day after tomorrow, 25 April, Wednesday

    Time Temperature Precipitation Wind Pressure Humidity
    00:00 +13°C° 0 mm 3 mps 699 mmHg 35%
    01:00 +12°C° 0 mm 3 mps 699 mmHg 37%
    02:00 +11°C° 0 mm 3 mps 700 mmHg 46%
    03:00 +10°C° 0 mm 3 mps 700 mmHg 54%
    04:00 +9°C° 0 mm 3 mps 701 mmHg 63%
    05:00 +10°C° 0 mm 4 mps 701 mmHg 61%
    06:00 +11°C° 0 mm 4 mps 702 mmHg 60%
    07:00 +10°C° 0 mm 5 mps 703 mmHg 58%
    08:00 +12°C° 0 mm 5 mps 703 mmHg 54%
    09:00 +13°C° 0 mm 5 mps 703 mmHg 49%
    10:00 +14°C° 0 mm 5 mps 703 mmHg 44%
    11:00 +15°C° 0 mm 5 mps 703 mmHg 40%
    12:00 +16°C° 0 mm 5 mps 703 mmHg 36%
    13:00 +17°C° 0 mm 5 mps 703 mmHg 31%
    14:00 +18°C° 0 mm 4 mps 703 mmHg 31%
    15:00 +18°C° 0 mm 4 mps 703 mmHg 30%
    16:00 +19°C° 0 mm 4 mps 703 mmHg 29%
    17:00 +17°C° 0 mm 3 mps 703 mmHg 34%
    18:00 +15°C° 0 mm 2 mps 703 mmHg 38%
    19:00 +13°C° 0 mm 1 mps 702 mmHg 43%
    20:00 +12°C° 0 mm 1 mps 703 mmHg 45%
    21:00 +11°C° 0 mm 1 mps 703 mmHg 48%
    22:00 +10°C° 0 mm 1 mps 703 mmHg 50%
    23:00 +10°C° 0 mm 1 mps 703 mmHg 51%

    26 April, Thursday

    Time Temperature Precipitation Wind Pressure Humidity
    00:00 +9°C° 0 mm 1 mps 703 mmHg 52%
    01:00 +8°C° 0 mm 2 mps 703 mmHg 53%
    02:00 +8°C° 0 mm 2 mps 703 mmHg 54%
    03:00 +7°C° 0 mm 2 mps 703 mmHg 56%
    04:00 +7°C° 0 mm 2 mps 703 mmHg 57%
    05:00 +9°C° 0 mm 2 mps 704 mmHg 53%
    06:00 +10°C° 0 mm 2 mps 704 mmHg 49%
    07:00 +13°C° 0 mm 2 mps 704 mmHg 44%
    08:00 +14°C° 0 mm 3 mps 704 mmHg 41%
    09:00 +17°C° 0 mm 3 mps 704 mmHg 38%
    10:00 +20°C° 0 mm 3 mps 704 mmHg 34%
    11:00 +21°C° 0 mm 3 mps 704 mmHg 31%
    12:00 +22°C° 0 mm 3 mps 704 mmHg 28%
    13:00 +24°C° 0 mm 2 mps 703 mmHg 24%
    14:00 +24°C° 0 mm 2 mps 703 mmHg 24%
    15:00 +25°C° 0 mm 2 mps 703 mmHg 23%
    16:00 +25°C° 0 mm 2 mps 702 mmHg 23%
    17:00 +23°C° 0 mm 1 mps 702 mmHg 27%
    18:00 +21°C° 0 mm 1 mps 701 mmHg 31%
    19:00 +19°C° 0 mm 1 mps 701 mmHg 35%
    20:00 +17°C° 0 mm 2 mps 701 mmHg 37%
    21:00 +16°C° 0 mm 2 mps 700 mmHg 38%
    22:00 +15°C° 0 mm 2 mps 700 mmHg 40%
    23:00 +14°C° 0 mm 2 mps 699 mmHg 40%

    27 April, Friday

    Time Temperature Precipitation Wind Pressure Humidity
    00:00 +14°C° 0 mm 2 mps 699 mmHg 40%
    01:00 +13°C° 0 mm 2 mps 698 mmHg 40%
    02:00 +13°C° 0 mm 2 mps 699 mmHg 43%
    03:00 +12°C° 0 mm 2 mps 699 mmHg 46%
    04:00 +12°C° 0 mm 2 mps 699 mmHg 49%
    05:00 +11°C° 0 mm 3 mps 700 mmHg 52%
    06:00 +12°C° 0 mm 4 mps 700 mmHg 56%
    07:00 +13°C° 0 mm 4 mps 701 mmHg 59%
    08:00 +14°C° 0 mm 4 mps 701 mmHg 56%
    09:00 +15°C° 0 mm 4 mps 701 mmHg 53%
    10:00 +17°C° 0 mm 4 mps 701 mmHg 49%
    11:00 +17°C° 0 mm 5 mps 701 mmHg 47%
    12:00 +19°C° 0 mm 5 mps 701 mmHg 44%
    13:00 +20°C° 0 mm 5 mps 701 mmHg 41%
    14:00 +19°C° 0 mm 5 mps 701 mmHg 42%
    15:00 +19°C° 0 mm 6 mps 701 mmHg 43%
    16:00 +17°C° 0 mm 6 mps 700 mmHg 44%
    17:00 +16°C° 0 mm 5 mps 700 mmHg 50%
    18:00 +14°C° 0 mm 4 mps 700 mmHg 55%
    19:00 +13°C° 0 mm 3 mps 700 mmHg 60%
    20:00 +12°C° 1 mm 4 mps 701 mmHg 67%
    21:00 +11°C° 1 mm 4 mps 701 mmHg 74%
    22:00 +10°C° 1 mm 4 mps 701 mmHg 81%
    23:00 +8°C° 0.9 mm 4 mps 702 mmHg 80%

    28 April, Saturday

    Time Temperature Precipitation Wind Pressure Humidity
    00:00 +7°C° 0.9 mm 4 mps 702 mmHg 80%
    01:00 +7°C° 0.9 mm 4 mps 703 mmHg 79%
    02:00 +6°C° 0.2 mm 4 mps 703 mmHg 79%
    03:00 +6°C° 0.2 mm 4 mps 704 mmHg 79%
    04:00 +6°C° 0.2 mm 4 mps 704 mmHg 79%
    05:00 +6°C° 0.1 mm 4 mps 705 mmHg 76%
    06:00 +6°C° 0.1 mm 5 mps 705 mmHg 74%
    07:00 +6°C° 0.1 mm 5 mps 706 mmHg 72%
    08:00 +7°C° 0 mm 5 mps 706 mmHg 66%
    09:00 +8°C° 0 mm 5 mps 706 mmHg 59%
    10:00 +10°C° 0 mm 4 mps 706 mmHg 53%
    11:00 +10°C° 0 mm 4 mps 706 mmHg 49%
    12:00 +11°C° 0 mm 4 mps 706 mmHg 46%
    13:00 +12°C° 0 mm 4 mps 706 mmHg 42%
    14:00 +12°C° 0 mm 4 mps 706 mmHg 40%
    15:00 +12°C° 0 mm 4 mps 705 mmHg 38%
    16:00 +12°C° 0 mm 4 mps 705 mmHg 37%
    17:00 +11°C° 0 mm 3 mps 705 mmHg 39%
    18:00 +10°C° 0 mm 2 mps 705 mmHg 42%
    19:00 +9°C° 0 mm 2 mps 705 mmHg 44%
    20:00 +9°C° 0 mm 1 mps 705 mmHg 46%
    21:00 +8°C° 0 mm 1 mps 706 mmHg 47%
    22:00 +8°C° 0 mm 1 mps 706 mmHg 49%
    23:00 +7°C° 0 mm 1 mps 705 mmHg 50%
    Show more